[[{"header":{"parameterUnit":"m.s-1","parameterCategory":1,"la1":30.2991,"la2":30.254,"lo1":-89.0895,"lo2":-89.0444,"dy":0.0017,"dx":0.0017,"nx":28,"ny":28,"refTime":"2023-08-27T09:00:00:Z","depth":0,"parameterNumber":2,"parameterNumberName":"U-component_of_WINDS"},"data":[0,0,0,0,0,0,0,0,0,0,0,0,0,0,0,0,0,0,0,0,0,0,0,0,0,0,0,0,0,0,0,0,0,0,0,0,0,0,0,0,0,0,0,0,0,0,0,0,0,0,0,0,0,0,0,0,0,0,-1.0406,-1.0407,0,-1.0471,-1.0472,-1.0472,-1.0499,-1.0499,-1.0499,-1.0498,-1.0563,-1.0565,-1.0567,0,0,0,0,0,0,0,0,0,0,0,0,0,-1.0306,-1.0307,-1.0406,-1.0407,-1.0408,-1.0471,-1.0472,-1.0472,-1.0499,-1.0499,-1.0499,-1.0498,-1.0562,-1.0565,-1.0567,0,0,0,0,0,0,0,0,0,0,0,0,0,-1.0358,-1.0308,-1.0406,-1.0429,-1.0431,-1.0471,-1.0472,-1.0473,-1.0499,-1.0499,-1.0499,-1.0498,-1.0562,-1.0564,-1.0567,-1.0588,0,0,-1.0575,-1.0577,0,0,0,0,0,0,0,0,-1.0355,-1.0361,-1.0425,-1.0427,-1.043,-1.0477,-1.046,-1.0511,-1.0499,-1.0473,-1.0498,-1.0498,-1.0534,-1.0539,-1.0552,-1.0591,-1.0594,-1.0576,-1.0577,-1.0579,-1.0579,0,0,0,0,0,0,0,-1.0351,-1.0359,-1.0432,-1.0426,-1.0429,-1.0435,-1.0443,-1.047,-1.0504,-1.0475,-1.0478,-1.0485,-1.0536,-1.0549,-1.0553,-1.0595,-1.0576,-1.0578,-1.058,-1.0581,-1.0656,-1.0656,0,0,0,0,0,0,-1.0344,-1.0355,-1.043,-1.0434,-1.0391,-1.0437,-1.0445,-1.0462,-1.0504,-1.051,-1.0485,-1.0486,-1.0544,-1.055,-1.0556,-1.0584,-1.0579,-1.0581,-1.0583,-1.0655,-1.0656,-1.0656,0,0,0,0,0,0,-1.0341,-1.035,-1.0427,-1.0395,-1.0406,-1.0439,-1.0458,-1.0463,-1.0477,-1.0511,-1.0517,-1.0492,-1.0544,-1.0552,-1.058,-1.0586,-1.0582,-1.0585,-1.0655,-1.0656,-1.0656,-1.064,0,0,0,0,0,0,-1.0338,-1.0349,-1.0357,-1.0395,-1.0407,-1.045,-1.0458,-1.0465,-1.0481,-1.0483,-1.0519,-1.0525,-1.0545,-1.0576,-1.0583,-1.059,-1.0587,-1.0655,-1.0655,-1.0656,-1.064,-1.0639,-1.0639,0,0,0,0,0,-1.0335,-1.035,-1.0358,-1.0367,-1.0418,-1.0451,-1.0458,-1.048,-1.0482,-1.0491,-1.0513,-1.0524,-1.0585,-1.0579,-1.0587,-1.0595,-1.0654,-1.0655,-1.0656,-1.064,-1.0639,-1.0639,0,0,0,0,0,0,-1.0311,-1.0355,-1.0364,-1.0392,-1.0418,-1.0455,-1.0467,-1.0479,-1.0504,-1.0505,-1.0531,-1.0539,-1.0566,-1.0583,-1.0575,-1.0618,-1.0621,-1.0623,-1.0605,-1.0605,-1.0605,-1.06,-1.0589,0,0,0,0,0,-1.0309,-1.0332,-1.0369,-1.039,-1.0402,-1.0432,-1.0447,-1.0463,-1.049,-1.0501,-1.0525,-1.0551,-1.0576,-1.0592,-1.0617,-1.0643,-1.0651,-1.0652,-1.0652,-1.0652,-1.0653,-1.0669,-1.067,-1.0659,-1.0659,-1.0659,0,0,-1.0305,-1.0332,-1.0344,-1.0386,-1.0407,-1.0431,-1.0441,-1.0465,-1.0482,-1.0504,-1.0533,-1.0552,-1.0582,-1.061,-1.0623,-1.0625,-1.0659,-1.0653,-1.0652,-1.0654,-1.067,-1.0671,-1.0672,-1.0659,-1.0659,-1.0659,0,0,-1.0309,-1.0332,-1.0352,-1.0374,-1.0407,-1.0427,-1.0432,-1.0468,-1.0482,-1.0511,-1.0528,-1.0549,-1.0592,-1.0613,-1.063,-1.0644,-1.0655,-1.0651,-1.065,-1.0665,-1.0666,-1.0667,-1.0672,-1.0674,-1.0653,-1.0653,-1.0653,0,-1.03,-1.0336,-1.0361,-1.0384,-1.0402,-1.0424,-1.0445,-1.0465,-1.0504,-1.0515,-1.0518,-1.0572,-1.0594,-1.0627,-1.0631,-1.0643,-1.065,-1.0647,-1.0664,-1.0665,-1.0666,-1.0672,-1.0674,-1.0652,-1.0652,-1.0652,-1.0652,0,-1.0323,-1.0347,-1.036,-1.0398,-1.0417,-1.0439,-1.0468,-1.0484,-1.0498,-1.0518,-1.0548,-1.0576,-1.0607,-1.0616,-1.063,-1.0652,-1.0652,-1.0659,-1.0662,-1.0666,-1.0672,-1.0674,-1.0651,-1.0651,-1.0652,-1.0652,0,0,-1.0313,-1.0366,-1.037,-1.0388,-1.0427,-1.0446,-1.0469,-1.0501,-1.0515,-1.0541,-1.0561,-1.0598,-1.0604,-1.0623,-1.0639,-1.0653,-1.0663,-1.0658,-1.0659,-1.0658,-1.069,-1.0684,-1.0686,-1.0671,-1.0672,-1.0672,-1.0687,0,-1.0322,-1.0365,-1.0389,-1.0422,-1.0446,-1.0468,-1.0488,-1.0514,-1.0533,-1.0556,-1.0578,-1.0603,-1.061,-1.0621,-1.0636,-1.0659,-1.067,-1.0658,-1.069,-1.0691,-1.0682,-1.0689,-1.0683,-1.0696,-1.0689,-1.069,-1.069,0,-1.0339,-1.0366,-1.0402,-1.0439,-1.045,-1.0468,-1.0499,-1.052,-1.0551,-1.0564,-1.0586,-1.0602,-1.0628,-1.0629,-1.0665,-1.0657,-1.0672,-1.0685,-1.0686,-1.069,-1.069,-1.0693,-1.07,-1.0702,-1.0694,-1.0693,-1.0693,0,-1.0328,-1.0374,-1.0402,-1.0416,-1.046,-1.0472,-1.0491,-1.0521,-1.0539,-1.0566,-1.0578,-1.0608,-1.0624,-1.0647,-1.0671,-1.067,-1.0705,-1.0708,-1.0717,-1.0716,-1.0722,-1.0722,-1.0732,-1.0732,-1.0732,-1.0732,-1.0732,0,-1.0337,-1.0358,-1.0398,-1.0414,-1.0439,-1.0466,-1.0489,-1.051,-1.0537,-1.0558,-1.0579,-1.0598,-1.0629,-1.0653,-1.0672,-1.0699,-1.0706,-1.0718,-1.0723,-1.0716,-1.0714,-1.0725,-1.0725,-1.0733,-1.0733,-1.0732,-1.0732,0,-1.0329,-1.0356,-1.0388,-1.0427,-1.0438,-1.0454,-1.0488,-1.0505,-1.0526,-1.0553,-1.0561,-1.0594,-1.0623,-1.065,-1.0688,-1.0701,-1.0728,-1.0734,-1.0718,-1.072,-1.0727,-1.0726,-1.0746,-1.075,-1.0747,-1.0747,-1.0747,0,-1.0332,-1.0349,-1.0391,-1.0407,-1.0425,-1.0451,-1.0469,-1.0497,-1.0516,-1.0552,-1.0565,-1.0596,-1.0621,-1.0666,-1.0694,-1.0723,-1.0731,-1.0735,-1.0735,-1.0728,-1.0731,-1.0729,-1.0731,-1.0735,-1.0735,-1.0734,-1.0734,0,-1.0335,-1.0348,-1.0374,-1.0406,-1.0428,-1.0453,-1.048,-1.0492,-1.0525,-1.0545,-1.0575,-1.0595,-1.0634,-1.0664,-1.0697,-1.0717,-1.0731,-1.0734,-1.0738,-1.0731,-1.0721,-1.0727,-1.0717,-1.0734,-1.0734,-1.0734,-1.0734,-1.0734,-1.0333,-1.0349,-1.0381,-1.041,-1.0433,-1.0458,-1.0476,-1.0501,-1.0526,-1.0561,-1.0576,-1.0607,-1.0638,-1.0683,-1.0703,-1.0727,-1.073,-1.0735,-1.0737,-1.0737,-1.0736,-1.0717,-1.0733,-1.0733,-1.0733,-1.0733,-1.0734,0,-1.0337,-1.0359,-1.0386,-1.0423,-1.0445,-1.0458,-1.0488,-1.0506,-1.0533,-1.0561,-1.0586,-1.0621,-1.0651,-1.0681,-1.0713,-1.0726,-1.0734,-1.0734,-1.0733,-1.0737,-1.0731,-1.0725,-1.0727,-1.0727,-1.0727,-1.0727,-1.0727,-1.0727,-1.0342,-1.037,-1.0388,-1.0428,-1.045,-1.0481,-1.0497,-1.052,-1.0542,-1.0581,-1.0606,-1.0625,-1.0655,-1.0688,-1.0716,-1.0725,-1.0735,-1.0733,-1.0743,-1.0737,-1.0737,-1.0738,-1.0732,-1.0735,-1.0735,-1.0747,-1.0747,-1.0747]},{"header":{"parameterUnit":"m.s-1","parameterCategory":1,"la1":30.2991,"la2":30.254,"lo1":-89.0895,"lo2":-89.0444,"dy":0.0017,"dx":0.0017,"nx":28,"ny":28,"refTime":"2023-08-27T09:00:00:Z","depth":0,"parameterNumber":3,"parameterNumberName":"V-component_of_WINDS"},"data":[0,0,0,0,0,0,0,0,0,0,0,0,0,0,0,0,0,0,0,0,0,0,0,0,0,0,0,0,0,0,0,0,0,0,0,0,0,0,0,0,0,0,0,0,0,0,0,0,0,0,0,0,0,0,0,0,0,0,-1.6059,-1.6058,0,-1.598,-1.5979,-1.5978,-1.5928,-1.5927,-1.5927,-1.5927,-1.5842,-1.584,-1.5838,0,0,0,0,0,0,0,0,0,0,0,0,0,-1.6163,-1.6162,-1.6059,-1.6058,-1.6057,-1.598,-1.5979,-1.5978,-1.5928,-1.5927,-1.5927,-1.5927,-1.5843,-1.584,-1.5838,0,0,0,0,0,0,0,0,0,0,0,0,0,-1.6104,-1.6161,-1.6059,-1.6023,-1.6019,-1.598,-1.5979,-1.5978,-1.5928,-1.5927,-1.5927,-1.5926,-1.5843,-1.584,-1.5838,-1.5828,0,0,-1.5828,-1.5827,0,0,0,0,0,0,0,0,-1.6108,-1.6101,-1.6029,-1.6025,-1.6021,-1.5963,-1.5985,-1.5927,-1.5928,-1.5962,-1.5927,-1.5926,-1.5882,-1.5876,-1.5862,-1.5824,-1.582,-1.5828,-1.5826,-1.5825,-1.5824,0,0,0,0,0,0,0,-1.6112,-1.6104,-1.6028,-1.6028,-1.6023,-1.6009,-1.6001,-1.5974,-1.5926,-1.5959,-1.5955,-1.5947,-1.588,-1.5865,-1.586,-1.5819,-1.5828,-1.5826,-1.5824,-1.5823,-1.577,-1.577,0,0,0,0,0,0,-1.6122,-1.6107,-1.603,-1.6025,-1.6064,-1.6008,-1.5998,-1.5982,-1.5926,-1.5917,-1.5947,-1.5945,-1.5871,-1.5863,-1.5857,-1.5843,-1.5825,-1.5822,-1.5821,-1.577,-1.577,-1.5771,0,0,0,0,0,0,-1.6125,-1.6116,-1.6033,-1.6065,-1.6054,-1.6007,-1.5989,-1.5981,-1.5966,-1.5917,-1.5908,-1.5941,-1.587,-1.5861,-1.5836,-1.5839,-1.5821,-1.5818,-1.5769,-1.577,-1.577,-1.5815,0,0,0,0,0,0,-1.6128,-1.6117,-1.6114,-1.6066,-1.6052,-1.6015,-1.5989,-1.598,-1.5962,-1.5957,-1.5909,-1.59,-1.5869,-1.5841,-1.5833,-1.5835,-1.5816,-1.5769,-1.5769,-1.577,-1.5813,-1.5817,-1.582,0,0,0,0,0,-1.6132,-1.6128,-1.6114,-1.6105,-1.6047,-1.6016,-1.6008,-1.5973,-1.5962,-1.5958,-1.5926,-1.5902,-1.584,-1.5839,-1.583,-1.583,-1.5768,-1.5769,-1.577,-1.5811,-1.5816,-1.582,0,0,0,0,0,0,-1.6176,-1.6121,-1.6105,-1.6086,-1.6056,-1.6007,-1.6001,-1.5979,-1.595,-1.5948,-1.5904,-1.5894,-1.5873,-1.5849,-1.5849,-1.5819,-1.5801,-1.58,-1.5836,-1.584,-1.5843,-1.585,-1.5814,0,0,0,0,0,-1.6184,-1.6164,-1.6116,-1.6104,-1.609,-1.6048,-1.6033,-1.6009,-1.5976,-1.5962,-1.5929,-1.5897,-1.587,-1.5853,-1.5826,-1.5809,-1.5797,-1.5805,-1.5808,-1.5812,-1.5812,-1.5801,-1.5804,-1.5773,-1.5773,-1.5773,0,0,-1.62,-1.6167,-1.6157,-1.6112,-1.6087,-1.6066,-1.6038,-1.6017,-1.6001,-1.5959,-1.5934,-1.5908,-1.5869,-1.5849,-1.5838,-1.5828,-1.5818,-1.5813,-1.5816,-1.5814,-1.5803,-1.5806,-1.5808,-1.5774,-1.5774,-1.5774,0,0,-1.6218,-1.6191,-1.6179,-1.6154,-1.6115,-1.6088,-1.6085,-1.6039,-1.6021,-1.5996,-1.5964,-1.5944,-1.5898,-1.5872,-1.5853,-1.5863,-1.5839,-1.5854,-1.5874,-1.5865,-1.5867,-1.5869,-1.5873,-1.5875,-1.5854,-1.5855,-1.5855,0,-1.6242,-1.6211,-1.6175,-1.6156,-1.6138,-1.61,-1.6087,-1.6064,-1.6018,-1.6006,-1.5995,-1.5938,-1.5909,-1.5883,-1.5885,-1.587,-1.5866,-1.586,-1.587,-1.5871,-1.5873,-1.5876,-1.5878,-1.5857,-1.5857,-1.5856,-1.5856,0,-1.6243,-1.6221,-1.6216,-1.6175,-1.6155,-1.6139,-1.61,-1.6085,-1.6062,-1.6035,-1.601,-1.5974,-1.5939,-1.5931,-1.5908,-1.5901,-1.5896,-1.5878,-1.586,-1.5879,-1.5881,-1.5882,-1.586,-1.5859,-1.5858,-1.5858,0,0,-1.6287,-1.6227,-1.6225,-1.6206,-1.6162,-1.6144,-1.6126,-1.6094,-1.6082,-1.6051,-1.6035,-1.5998,-1.5982,-1.596,-1.5934,-1.5926,-1.5937,-1.5909,-1.5907,-1.5916,-1.5928,-1.5942,-1.5944,-1.5921,-1.5921,-1.5921,-1.5931,0,-1.6299,-1.6267,-1.6235,-1.6214,-1.6194,-1.6158,-1.6142,-1.6113,-1.6087,-1.6066,-1.6037,-1.6012,-1.5992,-1.5979,-1.5969,-1.5938,-1.5938,-1.5936,-1.5905,-1.5904,-1.5917,-1.5945,-1.596,-1.5972,-1.5932,-1.5932,-1.5932,0,-1.6309,-1.6283,-1.6261,-1.6219,-1.6209,-1.6196,-1.6164,-1.6144,-1.611,-1.6092,-1.6068,-1.6041,-1.602,-1.6004,-1.5974,-1.5973,-1.5958,-1.5941,-1.594,-1.5937,-1.592,-1.5943,-1.5975,-1.5977,-1.5933,-1.5933,-1.5933,0,-1.6345,-1.6303,-1.6285,-1.627,-1.622,-1.6212,-1.6191,-1.6156,-1.6139,-1.611,-1.6099,-1.6067,-1.6051,-1.6027,-1.5991,-1.5982,-1.5965,-1.5946,-1.595,-1.5951,-1.5948,-1.5949,-1.5979,-1.5937,-1.5937,-1.5937,-1.5937,0,-1.6363,-1.6351,-1.6301,-1.629,-1.6276,-1.6238,-1.6224,-1.6199,-1.6169,-1.6152,-1.6117,-1.6102,-1.6055,-1.6034,-1.6005,-1.5986,-1.5978,-1.5962,-1.5955,-1.5966,-1.5968,-1.5956,-1.5955,-1.5937,-1.5937,-1.5937,-1.5937,0,-1.6401,-1.6367,-1.6345,-1.63,-1.6289,-1.628,-1.6242,-1.6229,-1.6202,-1.618,-1.6173,-1.613,-1.6103,-1.6065,-1.6026,-1.6007,-1.5991,-1.5979,-1.6004,-1.6,-1.6006,-1.6006,-1.603,-1.6031,-1.5988,-1.5989,-1.5989,0,-1.6416,-1.6406,-1.6361,-1.6348,-1.6328,-1.6307,-1.629,-1.6252,-1.6235,-1.6196,-1.6188,-1.6159,-1.6133,-1.6092,-1.6056,-1.6026,-1.6014,-1.6024,-1.6009,-1.602,-1.6015,-1.6017,-1.6016,-1.6028,-1.6029,-1.6029,-1.603,0,-1.6445,-1.6429,-1.6406,-1.6378,-1.6359,-1.6334,-1.6308,-1.6299,-1.6255,-1.6237,-1.6211,-1.6191,-1.6152,-1.6124,-1.6089,-1.6066,-1.604,-1.6035,-1.6034,-1.6046,-1.6061,-1.6054,-1.6015,-1.6034,-1.6034,-1.6034,-1.6033,-1.6033,-1.6472,-1.6463,-1.643,-1.6406,-1.6382,-1.6359,-1.6345,-1.6317,-1.6294,-1.6261,-1.6239,-1.6214,-1.6179,-1.613,-1.6108,-1.6087,-1.6076,-1.6075,-1.6075,-1.6076,-1.608,-1.6064,-1.608,-1.608,-1.608,-1.608,-1.6079,0,-1.6501,-1.6479,-1.6457,-1.6422,-1.6403,-1.6382,-1.6352,-1.6338,-1.6316,-1.6287,-1.6263,-1.6232,-1.6205,-1.6167,-1.6137,-1.6127,-1.6114,-1.612,-1.6121,-1.6116,-1.6091,-1.6095,-1.6131,-1.6131,-1.6131,-1.6131,-1.6131,-1.6131,-1.6514,-1.6497,-1.6477,-1.6448,-1.6424,-1.6401,-1.6385,-1.6363,-1.634,-1.6308,-1.6285,-1.6262,-1.6229,-1.6196,-1.6169,-1.6159,-1.6149,-1.6159,-1.6145,-1.6122,-1.6118,-1.6113,-1.6117,-1.6157,-1.6157,-1.6172,-1.6172,-1.6172]}]]